Location: Kergonan
(48.2337°N, 4.5518°W)
Time: 00:29:47
(UTC+00:00)

Cosmos 1538 Rocket - Pass Details

Date: 18 January 2020
Orbit: 753 x 791 km, 74.0° (Epoch: 23 February)

Event Time Altitude Azimuth Distance (km) Brightness Sun altitude
Rises 06:36:54 0° 214° (SW) 3,272 7.1 -13.9°
Reaches altitude 10° 06:39:20 10° 219° (SW) 2,344 6.3 -13.5°
Maximum altitude 06:44:34 55° 297° (WNW) 937 4.1 -12.6°
Drops below altitude 10° 06:49:48 10° 16° (NNE) 2,338 6.5 -11.8°
Sets 06:52:14 0° 21° (NNE) 3,264 7.3 -11.4°
